Regional Weather Roundup
Issued by NWS

Home | Current Version | Previous Version | Text Only | Print | Product List | Glossary On
Versions: 1 2 3 4 5 6 7 8 9 10 11 12 13 14 15 16 17 18 19 20 21 22 23 24 25 26 27 28 29 30 31 32 33 34 35 36 37 38 39 40 41 42 43 44 45 46 47 48 49 50
000
ASUS44 KMEG 220200
RWRTN
TENNESSEE HOURLY STATE WEATHER ROUNDUP
NATIONAL WEATHER SERVICE MEMPHIS TN
900 PM CDT SAT OCT 21 2017

TNZ002-004-019-021-049-052-054-088>092-220300-
WEST TENNESSEE

CITY           SKY/WX    TMP DP  RH WIND       PRES   REMARKS
MEMPHIS INTL   MOCLDY    74  63  68 SE10      30.07F
NWS MEMPHIS      N/A     72 N/A N/A MISG        N/A
JACKSON        MOCLDY    71  63  75 S8        30.11R
DYERSBURG        N/A     71  63  75 SE7       30.09S
$$

TNZ008-025-027-028-033-062-065-066-220300-
NORTH MIDDLE TENNESSEE

CITY           SKY/WX    TMP DP  RH WIND       PRES   REMARKS
NASHVILLE      MOCLDY    68  52  56 S10       30.19R
CLARKSVILLE    PTCLDY    66  58  75 SE5       30.15S
SMYRNA         PTCLDY    63  53  70 SE3       30.21R
CROSSVILLE     PTCLDY    56  50  80 CALM      30.27R
$$

TNZ061-075-076-078-094-096-097-220300-
SOUTH MIDDLE TENNESSEE

CITY           SKY/WX    TMP DP  RH WIND       PRES   REMARKS
TULLAHOMA      CLEAR     63  48  59 SE3       30.24R
WINCHESTER     CLEAR     66  52  59 S3          N/A
$$

TNZ017-018-042-046-047-220300-
NORTHEAST TENNESSEE

CITY           SKY/WX    TMP DP  RH WIND       PRES   REMARKS
TRI CITIES     CLOUDY    57  49  74 CALM      30.30R
$$

TNZ012-013-036-069-073-074-220300-
CENTRAL EAST TENNESSEE

CITY           SKY/WX    TMP DP  RH WIND       PRES   REMARKS
KNOXVILLE      CLOUDY    62  58  86 CALM      30.24S
OAK RIDGE      PTCLDY    58  56  93 CALM      30.27R
$$

TNZ083-085-099-220300-
SOUTHEAST TENNESSEE

CITY           SKY/WX    TMP DP  RH WIND       PRES   REMARKS
CHATTANOOGA    PTCLDY    61  51  70 CALM      30.25S
$$

SKY/WX REPORTED AS FAIR MEANS FEW OR NO CLOUDS BELOW
12 THOUSAND FEET.




USA.gov is the U.S. government's official web portal to all federal, state and local government web resources and services.